| time (UTC) | temp F | wind direction | speed knots | gust knots | rain 1hr in | rain 24hr in | rain mn in | humidity % | barometer mb |
| 20260506195015 | 62 | 0.0 | 0.0 | 0.00 | 0.04 | 0.04 | 71 | 1015.5 | |
| 20260506194015 | 61 | 0.0 | 0.0 | 0.00 | 0.04 | 0.04 | 72 | 1015.4 | |
| 20260506193016 | 61 | 0.0 | 0.0 | 0.00 | 0.04 | 0.04 | 73 | 1015.7 | |
| 20260506192015 | 61 | 0.0 | 0.0 | 0.00 | 0.04 | 0.04 | 74 | 1015.8 | |
| 20260506191015 | 60 | 0.0 | 0.0 | 0.00 | 0.04 | 0.04 | 73 | 1016.1 | |
| 20260506190015 | 60 | 0.0 | 0.0 | 0.00 | 0.04 | 0.04 | 74 | 1016.1 | |
| 20260506185015 | 60 | 0.0 | 0.0 | 0.00 | 0.04 | 0.04 | 74 | 1016.1 | |
| 20260506184015 | 60 | 0.0 | 0.0 | 0.00 | 0.04 | 0.04 | 74 | 1016.0 | |
| 20260506183015 | 59 | 0.0 | 0.0 | 0.00 | 0.04 | 0.04 | 78 | 1015.3 | |
| 20260506182015 | 58 | 0.0 | 0.0 | 0.00 | 0.04 | 0.04 | 78 | 1015.2 | |
| 20260506181015 | 57 | 0.0 | 0.0 | 0.00 | 0.04 | 0.04 | 82 | 1015.3 | |
| 20260506180015 | 56 | 0.0 | 0.0 | 0.00 | 0.04 | 0.04 | 85 | 1015.2 | |
| 20260506175015 | 55 | 0.0 | 0.0 | 0.00 | 0.04 | 0.04 | 85 | 1015.5 | |
| 20260506174015 | 55 | 0.0 | 0.0 | 0.00 | 0.04 | 0.04 | 87 | 1015.8 | |
| 20260506173015 | 54 | 0.0 | 0.0 | 0.00 | 0.04 | 0.04 | 88 | 1015.6 | |
| 20260506172015 | 54 | 0.0 | 0.0 | 0.00 | 0.04 | 0.04 | 89 | 1015.6 | |
| 20260506171015 | 53 | 0.0 | 0.0 | 0.00 | 0.04 | 0.04 | 89 | 1015.3 | |
| 20260506170015 | 53 | 0.0 | 0.0 | 0.00 | 0.04 | 0.04 | 89 | 1015.2 | |
| 20260506165015 | 53 | 0.0 | 0.0 | 0.00 | 0.04 | 0.04 | 89 | 1015.6 | |
| 20260506164035 | 53 | 0.0 | 0.0 | 0.00 | 0.04 | 0.04 | 89 | 1015.5 | |
| 20260506163015 | 53 | 0.0 | 0.0 | 0.00 | 0.04 | 0.04 | 89 | 1015.6 | |
| 20260506162035 | 53 | 0.0 | 0.0 | 0.01 | 0.04 | 0.04 | 89 | 1015.7 | |
| 20260506161015 | 53 | 0.0 | 0.0 | 0.01 | 0.04 | 0.04 | 89 | 1015.4 | |
| 20260506160015 | 53 | 0.0 | 0.0 | 0.01 | 0.04 | 0.04 | 90 | 1014.5 | |
| 20260506155015 | 53 | 0.0 | 0.0 | 0.03 | 0.04 | 0.04 | 90 | 1014.6 | |
| 20260506154015 | 53 | 0.0 | 0.0 | 0.04 | 0.04 | 0.04 | 89 | 1014.9 | |
| 20260506153015 | 53 | 0.0 | 0.0 | 0.04 | 0.04 | 0.04 | 89 | 1015.9 | |
| 20260506152035 | 53 | 0.0 | 0.0 | 0.03 | 0.03 | 0.03 | 89 | 1015.4 | |
| 20260506151015 | 52 | 0.0 | 0.0 | 0.03 | 0.03 | 0.03 | 88 | 1015.7 | |
| 20260506150015 | 52 | 0.0 | 0.0 | 0.03 | 0.03 | 0.03 | 88 | 1016.3 | |
| 20260506145015 | 52 | 0.0 | 0.0 | 0.01 | 0.01 | 0.01 | 87 | 1017.3 | |
| 20260506144015 | 52 | 0.0 | 0.0 | 0.00 | 0.00 | 0.00 | 86 | 1016.7 | |
| 20260506143057 | 52 | 0.0 | 0.0 | 0.00 | 0.00 | 0.00 | 86 | 1016.6 | |
| 20260506142037 | 52 | 0.0 | 0.0 | 0.00 | 0.00 | 0.00 | 85 | 1015.3 | |
| 20260506141017 | 52 | 0.0 | 0.0 | 0.00 | 0.00 | 0.00 | 84 | 1015.2 | |
| 20260506140017 | 52 | 0.0 | 0.0 | 0.00 | 0.00 | 0.00 | 84 | 1015.8 | |
| 20260506135017 | 52 | 0.0 | 0.0 | 0.00 | 0.00 | 0.00 | 84 | 1015.9 | |
| 20260506134017 | 53 | 0.0 | 0.0 | 0.00 | 0.00 | 0.00 | 83 | 1015.9 | |
| 20260506133017 | 53 | 0.0 | 0.0 | 0.00 | 0.00 | 0.00 | 83 | 1015.1 | |
| 20260506132017 | 53 | 0.0 | 0.0 | 0.00 | 0.00 | 0.00 | 83 | 1014.7 | |
| 20260506131017 | 53 | 0.0 | 0.0 | 0.00 | 0.00 | 0.00 | 83 | 1014.7 | |
| 20260506130017 | 53 | 0.0 | 0.0 | 0.00 | 0.00 | 0.00 | 82 | 1014.6 | |
| 20260506125017 | 53 | 0.0 | 0.0 | 0.00 | 0.00 | 0.00 | 82 | 1014.3 | |
| 20260506124017 | 53 | 0.0 | 0.0 | 0.00 | 0.00 | 0.00 | 81 | 1014.0 | |
| 20260506123017 | 53 | 0.0 | 0.0 | 0.00 | 0.00 | 0.00 | 81 | 1014.1 | |
| 20260506122017 | 54 | 0.0 | 0.0 | 0.00 | 0.00 | 0.00 | 79 | 1014.1 | |
| 20260506121037 | 54 | 0.0 | 0.0 | 0.00 | 0.00 | 0.00 | 78 | 1014.0 | |
| 20260506120037 | 55 | 0.0 | 0.0 | 0.00 | 0.00 | 0.00 | 77 | 1013.9 | |
| 20260506115017 | 55 | 0.0 | 0.0 | 0.00 | 0.00 | 0.00 | 77 | 1014.0 | |
| 20260506114017 | 55 | 0.0 | 0.0 | 0.00 | 0.00 | 0.00 | 77 | 1013.8 | |
| 20260506113017 | 55 | 0.0 | 0.0 | 0.00 | 0.00 | 0.00 | 76 | 1013.6 | |
| 20260506112057 | 56 | 0.0 | 0.0 | 0.00 | 0.00 | 0.00 | 77 | 1013.4 | |
| 20260506111017 | 56 | 0.0 | 0.0 | 0.00 | 0.00 | 0.00 | 77 | 1013.3 | |
| 20260506110057 | 56 | 0.0 | 0.0 | 0.00 | 0.00 | 0.00 | 77 | 1012.9 | |
| 20260506105017 | 57 | 0.0 | 0.0 | 0.00 | 0.00 | 0.00 | 77 | 1012.8 | |
| 20260506104016 | 57 | 0.0 | 0.0 | 0.00 | 0.00 | 0.00 | 77 | 1012.7 | |
| 20260506103016 | 57 | 0.0 | 0.0 | 0.00 | 0.00 | 0.00 | 76 | 1012.7 | |
| 20260506102016 | 57 | 0.0 | 0.0 | 0.00 | 0.00 | 0.00 | 76 | 1012.5 | |
| 20260506101016 | 57 | 0.0 | 0.0 | 0.00 | 0.00 | 0.00 | 76 | 1012.4 | |
| 20260506100037 | 57 | 0.0 | 0.0 | 0.00 | 0.00 | 0.00 | 77 | 1012.1 | |
| 20260506095017 | 57 | 0.0 | 0.0 | 0.00 | 0.00 | 0.00 | 76 | 1012.0 | |
| 20260506094016 | 57 | 0.0 | 0.0 | 0.00 | 0.00 | 0.00 | 77 | 1011.8 | |
| 20260506093017 | 57 | 0.0 | 0.0 | 0.00 | 0.00 | 0.00 | 76 | 1011.9 | |
| 20260506092016 | 57 | 0.0 | 0.0 | 0.00 | 0.00 | 0.00 | 77 | 1012.1 | |
| 20260506091016 | 57 | 0.0 | 0.0 | 0.00 | 0.00 | 0.00 | 77 | 1011.9 | |
| 20260506090016 | 57 | 0.0 | 0.0 | 0.00 | 0.00 | 0.00 | 76 | 1011.8 | |
| 20260506085016 | 58 | 0.0 | 0.0 | 0.00 | 0.00 | 0.00 | 77 | 1011.9 | |
| 20260506084017 | 58 | 0.0 | 0.0 | 0.00 | 0.00 | 0.00 | 78 | 1011.8 | |
| 20260506083017 | 58 | 0.0 | 0.0 | 0.00 | 0.00 | 0.00 | 78 | 1011.6 | |
| 20260506082016 | 58 | 0.0 | 0.0 | 0.00 | 0.00 | 0.00 | 77 | 1011.5 | |
| 20260506081036 | 58 | 0.0 | 0.0 | 0.00 | 0.00 | 0.00 | 78 | 1011.5 | |
| 20260506073016 | 58 | 0.0 | 0.0 | 0.00 | 0.00 | 0.00 | 80 | 1011.6 | |
| 20260506072016 | 58 | 0.0 | 0.0 | 0.00 | 0.00 | 0.00 | 80 | 1011.4 | |
| 20260506071016 | 59 | 0.0 | 0.0 | 0.00 | 0.00 | 0.00 | 80 | 1010.9 | |
| 20260506062016 | 60 | 0.0 | 0.0 | 0.00 | 0.00 | 0.00 | 79 | 1010.8 | |
| 20260506061016 | 60 | 0.0 | 0.0 | 0.00 | 0.00 | 0.00 | 79 | 1011.0 | |
| 20260506051016 | 62 | 0.0 | 0.0 | 0.00 | 0.00 | 0.00 | 76 | 1011.1 | |
| 20260506045035 | 63 | 0.0 | 0.0 | 0.00 | 0.00 | 0.00 | 76 | 1010.9 | |
| 20260506044035 | 63 | 0.0 | 0.0 | 0.00 | 0.00 | 0.00 | 76 | 1010.8 | |
| 20260506043017 | 63 | 0.0 | 0.0 | 0.00 | 0.00 | 0.00 | 74 | 1010.7 | |
| 20260506042017 | 64 | 0.0 | 0.0 | 0.00 | 0.00 | 0.00 | 74 | 1010.7 | |
| 20260506041037 | 64 | 0.0 | 0.0 | 0.00 | 0.00 | 0.00 | 73 | 1010.6 | |
| 20260506040017 | 64 | 0.0 | 0.0 | 0.00 | 0.00 | 0.00 | 73 | 1010.8 | |
| 20260506035017 | 65 | 0.0 | 0.0 | 0.00 | 0.00 | 0.00 | 73 | 1010.6 | |
| 20260506034017 | 65 | 0.0 | 0.0 | 0.00 | 0.00 | 0.00 | 73 | 1010.5 | |
| 20260506033017 | 66 | 0.0 | 0.0 | 0.00 | 0.00 | 0.00 | 73 | 1010.1 | |
| 20260506032037 | 66 | 0.0 | 0.0 | 0.00 | 0.00 | 0.00 | 73 | 1009.8 | |
| 20260506031037 | 66 | 0.0 | 0.0 | 0.00 | 0.00 | 0.00 | 73 | 1009.6 | |
| 20260506030017 | 66 | 0.0 | 0.0 | 0.00 | 0.00 | 0.00 | 73 | 1009.4 | |
| 20260506025017 | 67 | 0.0 | 0.0 | 0.00 | 0.00 | 0.00 | 73 | 1009.1 | |
| 20260506024017 | 67 | 0.0 | 0.0 | 0.00 | 0.00 | 0.00 | 72 | 1008.9 | |
| 20260506023017 | 67 | 0.0 | 0.0 | 0.00 | 0.00 | 0.00 | 71 | 1008.9 | |
| 20260506022037 | 67 | 0.0 | 0.0 | 0.00 | 0.00 | 0.00 | 70 | 1008.7 | |
| 20260506021037 | 68 | 0.0 | 0.0 | 0.00 | 0.00 | 0.00 | 70 | 1008.6 | |
| 20260506020017 | 68 | 0.0 | 0.0 | 0.00 | 0.00 | 0.00 | 71 | 1008.5 | |
| 20260506015037 | 68 | 0.0 | 0.0 | 0.00 | 0.00 | 0.00 | 70 | 1008.4 | |
| 20260506014036 | 69 | 0.0 | 0.0 | 0.00 | 0.00 | 0.00 | 70 | 1007.9 | |
| 20260506013016 | 69 | 0.0 | 0.0 | 0.00 | 0.00 | 0.00 | 69 | 1007.5 | |
| 20260506012016 | 70 | 0.0 | 0.0 | 0.00 | 0.00 | 0.00 | 69 | 1007.4 | |
| 20260506011037 | 71 | 0.0 | 0.0 | 0.00 | 0.00 | 0.00 | 68 | 1007.1 | |
| 20260506010017 | 71 | 0.0 | 0.0 | 0.00 | 0.00 | 0.00 | 68 | 1006.9 | |
| 20260506005017 | 72 | 0.0 | 0.0 | 0.00 | 0.00 | 0.00 | 67 | 1006.9 | |
| 20260506004016 | 72 | 0.0 | 0.0 | 0.00 | 0.00 | 0.00 | 68 | 1006.7 | |
| 20260506003016 | 73 | 0.0 | 0.0 | 0.00 | 0.00 | 0.00 | 67 | 1006.4 | |
| 20260506002016 | 73 | 0.0 | 0.0 | 0.00 | 0.00 | 0.00 | 66 | 1006.1 | |
| 20260506001017 | 74 | 0.0 | 0.0 | 0.00 | 0.00 | 0.00 | 64 | 1006.3 | |
| 20260506000036 | 74 | 0.0 | 0.0 | 0.00 | 0.00 | 0.00 | 64 | 1006.1 | |
| 20260505235016 | 75 | 0.0 | 0.0 | 0.00 | 0.00 | 0.00 | 64 | 1006.2 | |
| 20260505234016 | 75 | 0.0 | 0.0 | 0.00 | 0.00 | 0.00 | 62 | 1006.2 | |
| 20260505233037 | 76 | 0.0 | 0.0 | 0.00 | 0.00 | 0.00 | 62 | 1006.1 | |
| 20260505232057 | 77 | 45 | 2.6 | 12.2 | 0.00 | 0.00 | 0.00 | 62 | 1006.1 |
| 20260505231016 | 78 | 0 | 0.9 | 7.0 | 0.00 | 0.00 | 0.00 | 60 | 1006.2 |
| 20260505230017 | 79 | 45 | 2.6 | 11.3 | 0.00 | 0.00 | 0.00 | 59 | 1005.9 |
| 20260505225016 | 80 | 23 | 5.2 | 13.9 | 0.00 | 0.00 | 0.00 | 60 | 1006.0 |
| 20260505224016 | 80 | 23 | 4.3 | 10.4 | 0.00 | 0.00 | 0.00 | 60 | 1005.8 |
| 20260505223016 | 82 | 23 | 4.3 | 11.3 | 0.00 | 0.00 | 0.00 | 60 | 1005.5 |
| 20260505222017 | 82 | 23 | 3.5 | 9.6 | 0.00 | 0.00 | 0.00 | 59 | 1005.4 |
| 20260505221056 | 83 | 23 | 3.5 | 10.4 | 0.00 | 0.00 | 0.00 | 57 | 1005.3 |
| 20260505220016 | 83 | 23 | 3.5 | 11.3 | 0.00 | 0.00 | 0.00 | 55 | 1005.3 |
| 20260505215016 | 84 | 23 | 2.6 | 7.8 | 0.00 | 0.00 | 0.00 | 54 | 1005.1 |
| 20260505214016 | 85 | 23 | 2.6 | 7.8 | 0.00 | 0.00 | 0.00 | 50 | 1005.3 |
| 20260505213016 | 86 | 23 | 4.3 | 9.6 | 0.00 | 0.00 | 0.00 | 47 | 1005.5 |
| 20260505212036 | 87 | 45 | 3.5 | 8.7 | 0.00 | 0.00 | 0.00 | 45 | 1005.4 |
| 20260505211056 | 89 | 270 | 1.7 | 7.8 | 0.00 | 0.00 | 0.00 | 45 | 1005.5 |
| 20260505210016 | 90 | 270 | 0.9 | 2.6 | 0.00 | 0.00 | 0.00 | 49 | 1005.6 |
| 20260505205016 | 90 | 248 | 1.7 | 4.3 | 0.00 | 0.00 | 0.00 | 51 | 1005.7 |
| 20260505204016 | 89 | 248 | 1.7 | 5.2 | 0.00 | 0.00 | 0.00 | 51 | 1005.8 |
| 20260505203016 | 88 | 270 | 1.7 | 5.2 | 0.00 | 0.00 | 0.00 | 50 | 1005.8 |
| 20260505202016 | 88 | 338 | 1.7 | 4.3 | 0.00 | 0.00 | 0.00 | 52 | 1006.0 |
| 20260505201016 | 88 | 248 | 2.6 | 6.1 | 0.00 | 0.00 | 0.00 | 52 | 1005.9 |
| 20260505200016 | 88 | 270 | 1.7 | 7.8 | 0.00 | 0.00 | 0.00 | 53 | 1006.1 |